"TOA5","AWS1","CR1000","7964","CR1000.Std.14","CPU:AWS1_114.CR1","64363","TBL110"
"TIMESTAMP","RECORD","Wind_spd_WVc(1)","Wind_spd_WVc(2)","Air_Temp_Avg","Humidity_Avg","SW_upper_Wm2_Avg","Rain_Tot","Press_Avg","Issui_Tot","Depth_cm","SR50A_Raw","Quality","Ground_Temp_Avg(1)","Ground_Temp_Avg(2)","SW_lower_Wm2_Avg","Albedo_Avg","SWC_per(1)","SWC_per(2)","Period(1)","Period(2)"
"TS","RN","","","","","","","","","","","","","","","","","","",""
"","","WVc","WVc","Avg","Avg","Avg","Tot","Avg","Tot","Smp","Smp","Smp","Avg","Avg","Avg","Avg","Smp","Smp","Smp","Smp"
"2017-09-04 00:00:00",304189,0.315,164.1,11.31,100,0,0,868.8115,0,-1.466,3.131,354,19.5,19.75,0,0,48.05,55.03,32.81,34.52
"2017-09-04 00:10:00",304190,0.075,116.7,11.29,100,0,0,868.923,0,-3.605,3.151,272,19.53,19.75,0,0,48.05,55.03,32.81,34.52
"2017-09-04 00:20:00",304191,0.296,156,11.32,100,0,0,868.923,0,-2.793,3.144,286,19.54,19.75,0.09852806,0,48.05,55.03,32.81,34.52
"2017-09-04 00:30:00",304192,0.164,172,11.22,100,0,0,868.923,0,-1.262,3.129,293,19.53,19.75,0.09473852,0,48.05,55.03,32.81,34.52
"2017-09-04 00:40:00",304193,0.281,184.2,11.29,100,0,0,869.1316,0,-2.434,3.14,266,19.47,19.75,0.2501097,0,48,55.03,32.8,34.52
"2017-09-04 00:50:00",304194,0.218,219.6,11.27,100,0,0,869.0221,0,-1.388,3.13,329,19.49,19.75,0.1856875,0,48.05,55.03,32.81,34.52
"2017-09-04 01:00:00",304195,0.732,114,11.05,100,0,0,868.6556,0,-1.932,3.137,321,19.47,19.75,0.003789541,0,48,55.03,32.8,34.52
"2017-09-04 01:10:00",304196,0.766,114.4,10.96,100,0,0,868.4302,0,-1.884,3.137,361,19.45,19.74,0.05684311,0,48,54.97,32.8,34.51
"2017-09-04 01:20:00",304197,0.123,233.5,11.06,100,0,0,868.4176,0,-2.486,3.141,336,19.45,19.73,0.371375,0,48.05,55.03,32.81,34.52
"2017-09-04 01:30:00",304198,0.139,207.8,11.05,100,0,0,868.4176,0,-2.495,3.143,347,19.38,19.71,0.371375,0,48,54.97,32.8,34.51
"2017-09-04 01:40:00",304199,0.131,52.08,10.87,100,0,0,868.3185,0,-2.364,3.141,468,19.35,19.7,0.181898,0,48,55.03,32.8,34.52
"2017-09-04 01:50:00",304200,0,0,11.1,100,0,0,868.4028,0,-6.057,3.176,361,19.32,19.69,0.4547449,0,48,54.97,32.8,34.51
"2017-09-04 02:00:00",304201,0.052,56.8,11.06,100,0,0,868.4155,0,-7.795,3.194,240,19.35,19.69,0.3145319,0,48.05,54.97,32.81,34.51
"2017-09-04 02:10:00",304202,0.188,115.6,10.93,100,0,0,868.3986,0,-5.272,3.17,309,19.36,19.67,0.189477,0,48,54.97,32.8,34.51
"2017-09-04 02:20:00",304203,0.004,130.3,10.72,100,0,0,868.2786,0,-2.397,3.143,451,19.39,19.66,0.003789541,0,48,55.03,32.8,34.52
"2017-09-04 02:30:00",304204,0.007,129.5,10.72,100,0,0,868.1711,0,-2.45,3.144,425,19.36,19.65,0.04926403,0,48,54.97,32.8,34.51
"2017-09-04 02:40:00",304205,0.038,40.72,10.54,100,0,0,868.2028,0,-3.575,3.156,391,19.32,19.66,0.04926403,0,48,54.97,32.8,34.51
"2017-09-04 02:50:00",304206,0.018,5.453,10.55,100,0,0,868.1649,0,-4.032,3.16,288,19.32,19.62,0.2690574,0,48,54.97,32.8,34.51
"2017-09-04 03:00:00",304207,0.05,30.12,10.5,100,0,0,868.3439,0,-2.527,3.145,366,19.31,19.61,0.272847,0,48.05,54.97,32.81,34.51
"2017-09-04 03:10:00",304208,0.09,155.7,10.45,100,0,0,868.6493,0,318,0,0,19.28,19.62,0.1932666,0,48,54.97,32.8,34.51
"2017-09-04 03:20:00",304209,0.054,225.2,10.2,100,0,0,868.6703,0,-2.283,3.145,424,19.28,19.62,0.01515816,0,48,54.97,32.8,34.51
"2017-09-04 03:30:00",304210,0.078,131.5,10.26,100,0,0,868.6703,0,-6.202,3.183,307,19.24,19.62,0.05684311,0,48,54.97,32.8,34.51
"2017-09-04 03:40:00",304211,0.137,142.4,10.16,100,0,0,868.6703,0,-5.082,3.172,293,19.23,19.62,0.04168495,0,48,54.97,32.8,34.51
"2017-09-04 03:50:00",304212,0.054,212.7,9.96,100,0,0,868.6872,0,-3.255,3.156,335,19.19,19.63,0.03410587,0,48,54.97,32.8,34.51
"2017-09-04 04:00:00",304213,0,0,9.83,100,0,0,868.6746,0,-6.081,3.184,244,19.19,19.63,0.2425306,0,48,54.97,32.8,34.51
"2017-09-04 04:10:00",304214,0,0,9.72,100,0,0,868.7967,0,-4.097,3.165,312,19.22,19.64,0.4547449,0,48.05,54.97,32.81,34.51
"2017-09-04 04:20:00",304215,0,0,9.66,100,0,0,868.6746,0,-2.955,3.154,335,19.15,19.66,0.4547472,0,48,54.97,32.8,34.51
"2017-09-04 04:30:00",304216,0.075,199.7,9.48,100,0,0,868.6661,0,-5.48,3.181,257,19.09,19.67,0.3448526,0,48,54.97,32.8,34.51
"2017-09-04 04:40:00",304217,0.056,301.5,9.49,100,0,0,868.6703,0,318,0,0,19.12,19.65,0.6404416,0,48,54.97,32.8,34.51
"2017-09-04 04:50:00",304218,0.021,343.2,9.58,100,0,0,868.6724,0,-4.5,3.17,255,19.16,19.64,0.557091,0,48,54.97,32.8,34.51
"2017-09-04 05:00:00",304219,0.011,347.8,9.53,100,0,0,868.6808,0,-3.14,3.157,288,19.15,19.66,0.4548221,0,48.05,54.92,32.81,34.49
"2017-09-04 05:10:00",304220,0.004,339.3,9.54,100,0,0,868.7145,0,318,0,0,19.07,19.65,0.4813604,0,48,54.97,32.8,34.51
"2017-09-04 05:20:00",304221,0.075,208.1,9.47,100,0.5385811,0,868.7419,0,-6.709,3.192,250,19.09,19.61,0.9779321,0.536,48,54.92,32.8,34.49
"2017-09-04 05:30:00",304222,0,0,9.61,100,0.1847741,0,868.9273,0,-7.781,3.202,266,19.13,19.62,1.06893,0.409,48,54.97,32.8,34.51
"2017-09-04 05:40:00",304223,0.024,164.1,9.54,100,5.315176,0,868.942,0,318,0,0,19.13,19.63,1.842215,0.42,47.95,54.97,32.78,34.51
"2017-09-04 05:50:00",304224,0.319,164.9,9.52,100,13.04454,0,868.923,0,318,0,0,19.09,19.66,2.968089,0.229,48,54.92,32.8,34.49
"2017-09-04 06:00:00",304225,0.148,165.1,9.93,100,23.17643,0,868.9757,0,-8.54,3.205,233,19.08,19.67,4.818048,0.208,48,54.92,32.8,34.49
"2017-09-04 06:10:00",304226,0.178,306.9,10.32,100,36.7674,0,869.0052,0,-8.65,3.207,245,19.06,19.66,6.698192,0.183,48.05,54.92,32.81,34.49
"2017-09-04 06:20:00",304227,0.122,300.9,10.14,100,46.70603,0,869.2158,0,-8.62,3.208,234,19.03,19.66,7.679956,0.165,48,54.92,32.8,34.49
"2017-09-04 06:30:00",304228,0,0,10.17,100,53.21573,0,869.2643,0,318,0,0,19.01,19.65,8.672982,0.163,48.05,54.92,32.81,34.49
"2017-09-04 06:40:00",304229,0,0,10.09,100,66.64633,0,869.3865,0,318,0,0,18.95,19.64,10.75355,0.161,48,54.92,32.8,34.49
"2017-09-04 06:50:00",304230,0.148,162.2,10.27,100,89.21564,0,869.199,0,318,0,0,18.95,19.62,14.33112,0.161,48,54.97,32.8,34.51
"2017-09-04 07:00:00",304231,0.092,162.8,10.95,100,108.474,0,869.18,0,318,0,0,18.88,19.58,17.22567,0.159,48,54.92,32.8,34.49
"2017-09-04 07:10:00",304232,0.296,162.9,11.27,100,119.6178,0,869.0621,0,-7.743,3.191,274,18.86,19.56,19.00573,0.159,48,54.92,32.8,34.49
"2017-09-04 07:20:00",304233,0.054,162.9,11.84,99.7,138.5458,0,869.1569,0,-5.708,3.167,238,18.85,19.54,22.12387,0.16,48.05,54.97,32.81,34.51
"2017-09-04 07:30:00",304234,0.386,298.7,11.99,95.8,138.9406,0,869.2496,0,-1.176,3.126,320,18.84,19.54,22.32817,0.161,48,54.92,32.8,34.49
"2017-09-04 07:40:00",304235,0.258,327.1,11.42,99.1,138.0398,0,869.3338,0,-0.237,3.118,254,18.84,19.54,20.84632,0.151,48,54.92,32.8,34.49
"2017-09-04 07:50:00",304236,0.363,335.9,11.31,100,145.9866,0,869.4391,0,0.88,3.108,236,18.83,19.54,21.97178,0.151,48.05,54.92,32.81,34.49
"2017-09-04 08:00:00",304237,0.193,334.7,11.32,100,162.8043,0,869.6244,0,1.168,3.104,233,18.79,19.54,24.48046,0.15,48,54.92,32.8,34.49
"2017-09-04 08:10:00",304238,0.21,322.6,11.56,100,181.2609,0,869.6918,0,2.627,3.089,217,18.78,19.54,27.15588,0.15,48,54.92,32.8,34.49
"2017-09-04 08:20:00",304239,0.035,248.4,12.03,100,221.6485,0,869.7108,0,2.736,3.083,222,18.78,19.54,32.55977,0.147,48,54.92,32.8,34.49
"2017-09-04 08:30:00",304240,0.02,306.4,12.64,97.6,200.6097,0,869.7108,0,3.088,3.077,214,18.78,19.54,30.08898,0.15,48,54.92,32.8,34.49
"2017-09-04 08:40:00",304241,0.086,176.4,12.99,95.8,174.2414,0,869.6813,0,3.811,3.069,220,18.8,19.53,25.67795,0.147,48,54.97,32.8,34.51
"2017-09-04 08:50:00",304242,0.033,210.5,13.48,90.3,201.8399,0,869.6777,0,3.068,3.073,215,18.82,19.52,30.72942,0.152,48,54.92,32.8,34.49
"2017-09-04 09:00:00",304243,0.234,316.8,13.45,89.4,234.4573,0,869.6729,0,3.377,3.073,211,18.82,19.5,35.90215,0.153,48,54.92,32.8,34.49
"2017-09-04 09:10:00",304244,0.422,320.4,13.23,91.8,244.8804,0,869.6763,0,3.401,3.073,202,18.79,19.51,37.99397,0.155,47.95,54.92,32.78,34.49
"2017-09-04 09:20:00",304245,0.345,340.5,13.32,90.7,287.0562,0,869.6595,0,3.362,3.072,205,18.77,19.52,45.0084,0.157,48,54.92,32.8,34.49
"2017-09-04 09:30:00",304246,0.311,343.4,13.73,87.7,303.6965,0,869.6999,0,2.415,3.078,217,18.76,19.52,48.60016,0.16,48,54.92,32.8,34.49
"2017-09-04 09:40:00",304247,0.366,8.42,14.06,86.5,307.4674,0,869.8594,0,2.415,3.078,248,18.76,19.51,48.29289,0.157,48,54.92,32.8,34.49
"2017-09-04 09:50:00",304248,0.395,356.8,14.07,87,322.6809,0,869.8378,0,2.701,3.075,212,18.75,19.48,51.20314,0.159,48,54.92,32.8,34.49
"2017-09-04 10:00:00",304249,0.301,4.268,14.17,86.1,388.8979,0,869.761,0,2.613,3.075,206,18.77,19.44,61.19366,0.158,48,54.92,32.8,34.49
"2017-09-04 10:10:00",304250,0.47,12.25,14.42,85.5,431.5237,0,869.8039,0,2.094,3.078,258,18.81,19.41,63.66582,0.148,48,54.92,32.8,34.49
"2017-09-04 10:20:00",304251,0.469,4.449,14.73,84.4,453.1105,0,869.7404,0,3.2,3.065,218,18.77,19.38,67.21333,0.148,47.95,54.86,32.78,34.48
"2017-09-04 10:30:00",304252,0.488,351.2,15.03,82.7,475.2642,0,869.5825,0,3.066,3.065,225,18.75,19.36,70.22617,0.148,48,54.86,32.8,34.48
"2017-09-04 10:40:00",304253,0.441,22.63,15.44,80.8,579.6537,0,869.3803,0,2.675,3.067,270,18.84,19.35,84.86992,0.146,47.95,54.86,32.78,34.48
"2017-09-04 10:50:00",304254,0.655,18.59,15.72,79.41,559.2217,0,869.3699,0,0.379,3.088,194,18.85,19.34,83.34347,0.149,48,54.86,32.8,34.48
"2017-09-04 11:00:00",304255,0.429,348.8,15.92,79.61,558.9277,0,869.3446,0,-0.091,3.091,207,18.8,19.33,84.43869,0.151,48.05,54.86,32.81,34.48
"2017-09-04 11:10:00",304256,0.381,11.26,16.54,78.26,772.0099,0,869.3404,0,-0.131,3.087,241,18.78,19.31,116.9482,0.151,47.95,54.86,32.78,34.48
"2017-09-04 11:20:00",304257,0.417,8.57,16.83,76.8,748.989,0,869.3361,0,0.583,3.081,213,18.81,19.28,112.5266,0.15,48,54.86,32.8,34.48
"2017-09-04 11:30:00",304258,0.699,13.27,16.49,76.5,649.0938,0,869.1951,0,-35.7,3.435,280,18.83,19.31,98.93784,0.152,47.95,54.86,32.78,34.48
"2017-09-04 11:40:00",304259,0.395,359.8,16.62,77.25,724.5803,0,869.2035,0,0.377,3.083,238,18.84,19.32,112.2762,0.155,47.95,54.86,32.78,34.48
"2017-09-04 11:50:00",304260,0.355,320.7,16.97,75.55,732.4067,0,869.1403,0,-1.518,3.1,200,18.9,19.32,112.8217,0.153,47.95,54.8,32.78,34.46
"2017-09-04 12:00:00",304261,0.383,350.4,17,75.1,871.0789,0,869.0834,0,3.471,3.05,236,18.92,19.33,138.4871,0.158,47.95,54.8,32.78,34.46
"2017-09-04 12:10:00",304262,0.527,28,17.63,72.37,936.0087,0,868.9487,0,1.647,3.067,225,18.96,19.31,148.92,0.157,47.95,54.8,32.78,34.46
"2017-09-04 12:20:00",304263,0.504,4.257,17.91,70.66,986.1696,0,868.5992,0,0.174,3.076,220,19,19.24,157.1859,0.159,47.95,54.86,32.78,34.48
"2017-09-04 12:30:00",304264,0.348,353.3,18.51,69.51,1049.862,0,868.4392,0,-1.026,3.086,218,19.03,19.26,168.9371,0.161,47.89,54.8,32.77,34.46
"2017-09-04 12:40:00",304265,0.329,61.75,18.41,67.61,715.7676,0,868.3255,0,1.715,3.062,220,19.08,19.23,107.181,0.137,47.84,54.8,32.76,34.46
"2017-09-04 12:50:00",304266,0.306,7.836,17.88,70.03,461.9262,0,868.3066,0,1.824,3.063,205,19.05,19.19,65.66556,0.132,47.89,54.8,32.77,34.46
"2017-09-04 13:00:00",304267,0.26,283.3,17.72,71.74,482.0621,0,868.3213,0,2.195,3.061,212,19.09,19.16,70.51831,0.14,47.89,54.8,32.77,34.46
"2017-09-04 13:10:00",304268,0.395,350.6,17.93,70.06,548.4612,0,868.3255,0,-1.265,3.092,201,19.14,19.15,85.17885,0.147,47.84,54.8,32.76,34.46
"2017-09-04 13:20:00",304269,0.387,257.7,18.07,68.73,710.4792,0,868.3255,0,0.348,3.075,210,19.22,19.15,114.14,0.155,47.84,54.8,32.76,34.46
"2017-09-04 13:30:00",304270,0.445,328.8,18.63,65.66,889.3799,0,868.2729,0,1.676,3.061,251,19.25,19.16,139.2448,0.154,47.79,54.75,32.74,34.45
"2017-09-04 13:40:00",304271,0.585,311.8,18.73,64.84,895.4227,0,868.1065,0,0.797,3.067,202,19.32,19.14,127.0201,0.141,47.79,54.75,32.74,34.45
"2017-09-04 13:50:00",304272,0.337,277.6,19.01,64.99,794.1029,0,868.0729,0,1.013,3.064,218,19.33,19.17,98.52107,0.123,47.79,54.8,32.74,34.46
"2017-09-04 14:00:00",304273,0.293,178,19.05,68.19,610.4286,0,867.9044,0,3.26,3.045,257,19.36,19.16,63.06682,0.102,47.73,54.8,32.73,34.46
"2017-09-04 14:10:00",304274,0.3,248.2,18.27,68.19,375.4344,0,867.9486,0,-35.34,3.422,253,19.36,19.14,43.22395,0.116,47.73,54.8,32.73,34.46
"2017-09-04 14:20:00",304275,0.202,327.3,18.35,66.88,233.0612,0,867.8202,0,2.583,3.052,273,19.48,19.14,40.53809,0.173,47.79,54.8,32.74,34.46
"2017-09-04 14:30:00",304276,0.196,180.5,18.14,69.05,175.1956,0,867.8202,0,2.228,3.06,236,19.47,19.14,21.54758,0.123,47.73,54.8,32.73,34.46
"2017-09-04 14:40:00",304277,0.047,215.8,17.58,69.41,138.794,0,867.9802,0,2.726,3.057,218,19.61,19.16,17.40702,0.125,47.73,54.8,32.73,34.46
"2017-09-04 14:50:00",304278,0.226,187.2,17.65,71.59,192.0351,0,868.1339,0,3.316,3.049,262,19.63,19.18,29.36274,0.152,47.73,54.75,32.73,34.45
"2017-09-04 15:00:00",304279,0.344,245.7,17.72,70.12,173.463,0,868.256,0,3.316,3.049,245,19.7,19.18,25.97604,0.149,47.73,54.75,32.73,34.45
"2017-09-04 15:10:00",304280,0.145,316.7,17.91,71.64,213.6015,0,868.2897,0,3.061,3.051,239,19.68,19.18,32.36309,0.151,47.73,54.75,32.73,34.45
"2017-09-04 15:20:00",304281,0.206,227.3,17.8,72.15,161.8613,0,868.3698,0,3.848,3.044,325,19.78,19.18,22.54072,0.138,47.68,54.75,32.71,34.45
"2017-09-04 15:30:00",304282,0.217,267.3,17.88,69.77,203.2876,0,868.3255,0,4.605,3.035,375,19.81,19.18,30.81223,0.151,47.68,54.75,32.71,34.45
"2017-09-04 15:40:00",304283,0.184,256.4,18.21,69.76,194.6189,0,868.3255,0,4.096,3.039,313,19.81,19.19,29.43427,0.151,47.68,54.75,32.71,34.45
"2017-09-04 15:50:00",304284,0.173,110.9,18.23,70.86,194.5372,0,868.3255,0,-36.45,3.432,199,19.87,19.24,28.74106,0.147,47.62,54.75,32.7,34.45
"2017-09-04 16:00:00",304285,0.423,333.1,17.84,70,131.918,0,868.3255,0,-0.877,3.092,200,19.91,19.28,17.59091,0.133,47.62,54.75,32.7,34.45
"2017-09-04 16:10:00",304286,0.281,76.87,17.62,71.93,108.8983,0,868.3255,0,-36.64,3.438,209,19.91,19.26,14.1241,0.128,47.62,54.75,32.7,34.45
"2017-09-04 16:20:00",304287,0.289,87.8,17.53,70,91.2343,0,868.3255,0,-2.391,3.106,199,19.91,19.28,11.22559,0.122,47.62,54.75,32.7,34.45
"2017-09-04 16:30:00",304288,0.385,47.89,17.55,67.7,105.7334,0,868.3298,0,-2.452,3.107,197,19.97,19.32,14.71163,0.139,47.62,54.69,32.7,34.44
"2017-09-04 16:40:00",304289,0,0,17.11,72.2,55.94508,0,868.4561,0,-1.574,3.101,205,20.05,19.35,6.115182,0.108,47.62,54.69,32.7,34.44
"2017-09-04 16:50:00",304290,0.05,33.67,16.76,74.62,71.64751,0,868.4518,0,-1.246,3.099,204,20.07,19.37,9.093204,0.125,47.57,54.69,32.69,34.44
"2017-09-04 17:00:00",304291,0.126,75.28,16.72,72.13,52.39269,0,868.5613,0,-1.975,3.107,198,20.07,19.38,6.391763,0.121,47.57,54.69,32.69,34.44
"2017-09-04 17:10:00",304292,0.156,72.26,16.53,72.64,39.67018,0,868.5781,0,-0.192,3.091,220,20.09,19.4,4.2247,0.105,47.57,54.69,32.69,34.44
"2017-09-04 17:20:00",304293,0.048,69.47,16.24,74.47,33.41457,0,868.5833,0,3.806,3.054,230,20.1,19.41,3.334334,0.099,47.57,54.69,32.69,34.44
"2017-09-04 17:30:00",304294,0.011,70.26,15.94,75.9,33.38774,0,868.5798,0,3.793,3.055,218,20.11,19.42,3.80804,0.114,47.62,54.69,32.7,34.44
"2017-09-04 17:40:00",304295,0.021,46.73,15.69,77.2,34.31231,0,868.6453,0,3.778,3.056,218,20.11,19.43,4.126451,0.12,47.62,54.69,32.7,34.44
"2017-09-04 17:50:00",304296,0.097,38.51,15.6,77.55,15.85801,0,868.804,0,3.717,3.057,217,20.12,19.44,1.5688,0.093,47.62,54.63,32.7,34.42
"2017-09-04 18:00:00",304297,0.151,56.54,15.42,78.14,6.590991,0,869.0685,0,4.141,3.054,225,20.08,19.45,0.6555818,0.101,47.57,54.63,32.69,34.42
"2017-09-04 18:10:00",304298,0.008,108.3,15.24,79.72,4.959996,0,869.1259,0,3.847,3.058,220,20.05,19.45,0.8261166,0.168,47.57,54.63,32.69,34.42
"2017-09-04 18:20:00",304299,0.053,78.97,15.07,81,0.7231711,0,869.3611,0,3.633,3.061,212,20.03,19.45,0.1288442,0.071,47.57,54.63,32.69,34.42
"2017-09-04 18:30:00",304300,0.16,102.8,14.84,83.4,0,0,869.372,0,3.523,3.063,208,20.04,19.46,0,0,47.57,54.63,32.69,34.42
"2017-09-04 18:40:00",304301,0.062,66.57,14.86,83.6,0,0,869.3973,0,3.681,3.061,226,20.06,19.5,0.003789541,0,47.52,54.63,32.67,34.42
"2017-09-04 18:50:00",304302,0.068,70.54,14.94,83.8,0,0,869.426,0,3.484,3.062,211,20.03,19.51,0.3334796,0,47.52,54.63,32.67,34.42
"2017-09-04 19:00:00",304303,0.036,141.1,14.93,85,0,0,869.4449,0,3.728,3.061,212,19.98,19.49,0.2538992,0,47.52,54.63,32.67,34.42
"2017-09-04 19:10:00",304304,0,0,14.7,85.7,0,0,869.512,0,3.594,3.063,212,19.97,19.46,0,0,47.52,54.63,32.67,34.42
"2017-09-04 19:20:00",304305,0.044,351.2,14.72,85.6,0,0,869.6564,0,2.757,3.07,237,20,19.45,0.09852806,0,47.52,54.63,32.67,34.42
"2017-09-04 19:30:00",304306,0.124,186.8,14.41,87.6,0,0,869.7783,0,2.711,3.073,205,19.98,19.45,0,0,47.52,54.63,32.67,34.42
"2017-09-04 19:40:00",304307,0.036,160.2,14.28,88.4,0,0,869.9315,0,2.672,3.075,225,19.96,19.45,0,0,47.52,54.58,32.67,34.41
"2017-09-04 19:50:00",304308,0,0,14.07,89.6,0,0,869.934,0,2.436,3.078,217,19.92,19.47,0,0,47.46,54.63,32.66,34.42
"2017-09-04 20:00:00",304309,0.274,184.4,13.7,91,0,0,869.934,0,2.422,3.08,206,19.93,19.47,0,0,47.46,54.58,32.66,34.41
"2017-09-04 20:10:00",304310,0.217,189.5,13.65,92,0,0,869.934,0,2.556,3.078,233,19.91,19.52,0.3410587,0,47.46,54.58,32.66,34.41
"2017-09-04 20:20:00",304311,0.11,172.2,13.61,92,0,0,869.934,0,2.548,3.079,217,19.88,19.54,0.2046352,0,47.46,54.58,32.66,34.41
"2017-09-04 20:30:00",304312,0.094,174.1,13.51,92.4,0,0,869.9825,0,2.47,3.08,222,19.86,19.54,0.01136862,0,47.46,54.58,32.66,34.41
"2017-09-04 20:40:00",304313,0.068,177.8,13.48,93,0,0,869.9656,0,2.384,3.082,224,19.82,19.55,0.07200127,0,47.52,54.63,32.67,34.42
"2017-09-04 20:50:00",304314,0.129,182.8,13.26,94.2,0,0,869.934,0,2.527,3.082,229,19.86,19.55,0.03031633,0,47.52,54.58,32.67,34.41
"2017-09-04 21:00:00",304315,0.077,185.3,13.14,95.5,0,0,869.9298,0,1.818,3.088,222,19.79,19.55,0.2197934,0,47.52,54.58,32.67,34.41
"2017-09-04 21:10:00",304316,0,0,13.2,95.9,0,0,869.934,0,2.173,3.085,234,19.74,19.55,0.4509554,0,47.52,54.58,32.67,34.41
"2017-09-04 21:20:00",304317,0.203,190.7,12.89,96.3,0,0,869.934,0,1.829,3.09,229,19.77,19.56,0.07958036,0,47.52,54.58,32.67,34.41
"2017-09-04 21:30:00",304318,0.391,195.2,12.75,97.5,0,0,869.934,0,1.112,3.097,235,19.78,19.56,0.2690574,0,47.46,54.58,32.66,34.41
"2017-09-04 21:40:00",304319,0.089,198.9,12.9,97.7,0,0,869.9467,0,-0.115,3.109,222,19.7,19.6,0.4547449,0,47.46,54.63,32.66,34.42
"2017-09-04 21:50:00",304320,0.217,193.8,12.77,97.6,0,0,869.9362,0,-0.404,3.113,213,19.67,19.61,0.4282182,0,47.46,54.58,32.66,34.41
"2017-09-04 22:00:00",304321,0.381,194,12.61,98.6,0,0,869.934,0,0.39,3.105,216,19.7,19.62,0.3903227,0,47.46,54.58,32.66,34.41
"2017-09-04 22:10:00",304322,0.152,190.5,12.71,99.5,0,0,870.0688,0,0.83,3.1,227,19.68,19.62,0.5646416,0,47.46,54.58,32.66,34.41
"2017-09-04 22:20:00",304323,0.146,190.7,12.8,98.9,0,0,870.1868,0,0.42,3.104,224,19.65,19.62,0.6896964,0,47.46,54.58,32.66,34.41
"2017-09-04 22:30:00",304324,0.1,191,12.87,99,0.05895425,0,870.1762,0,-0.025,3.106,228,19.59,19.62,0.693486,0.289,47.46,54.58,32.66,34.41
"2017-09-04 22:40:00",304325,0.019,192.3,13.3,98.6,0.1650719,0,870.0394,0,0.439,3.101,234,19.61,19.62,0.9094898,1.061,47.46,54.58,32.66,34.41
"2017-09-04 22:50:00",304326,0.073,190.5,13.25,97.4,0,0,869.9319,0,0.848,3.097,229,19.56,19.62,0.5987474,0,47.46,54.58,32.66,34.41
"2017-09-04 23:00:00",304327,0.077,190.4,13.39,99.7,0,0,869.9298,0,1.138,3.093,232,19.53,19.62,0.6366429,0,47.46,54.52,32.66,34.4
"2017-09-04 23:10:00",304328,0.028,190.4,13.41,99.9,0,0,869.9172,0,1.36,3.092,234,19.49,19.62,0.5040089,0,47.41,54.58,32.65,34.41
"2017-09-04 23:20:00",304329,0,0,13.44,100,0,0,869.934,0,0.499,3.099,229,19.53,19.62,0.6480115,0,47.46,54.52,32.66,34.4
"2017-09-04 23:30:00",304330,0.033,316.5,13.31,99,0,0,869.9424,0,1.866,3.088,238,19.5,19.62,0.2880051,0,47.46,54.52,32.66,34.4
"2017-09-04 23:40:00",304331,0,0,13.17,100,0,0,869.934,0,2.016,3.087,232,19.46,19.62,0.4433763,0,47.41,54.58,32.65,34.41
"2017-09-04 23:50:00",304332,0,0,13.27,100,0,0,869.934,0,1.982,3.085,237,19.47,19.62,0.6631697,0,47.46,54.58,32.66,34.41
